Jordan, MT

10:12 PM MDT on September 22, 2017 (GMT -0600)
Jordan

Weather History for KJDN - October, 2013

Change the Weather History Date:

Saturday, October 12, 2013

  Actual Average Record
Temperature  
Mean Temperature 41 °F 46 °F  
Max Temperature 55 °F 61 °F 86 °F (1910)
Min Temperature 27 °F 31 °F 8 °F (1909)
Degree Days  
Heating Degree Days 24 19  
Month to date heating degree days 232 204  
Since 1 July heating degree days 393 530  
Cooling Degree Days 0 0  
Month to date cooling degree days 0 0  
Year to date cooling degree days 520 420  
Moisture  
Dew Point 26 °F    
Average Humidity 62    
Maximum Humidity 92    
Minimum Humidity 32    
Precipitation  
Precipitation 0.00 in 0.03 in 0.83 in (1981)
Month to date precipitation 0.08 0.34  
Year to date precipitation 15.54 11.47  
Snow  
Snow 0.00 in - - ()
Month to date snowfall 0.0  
Since 1 July snowfall 0.0  
Since 1 September snowfall 0.0  
Snow Depth 0.00 in    
Sea Level Pressure  
Sea Level Pressure 30.16 in    
Wind  
Wind Speed 4 mph (NW)    
Max Wind Speed 10 mph    
Max Gust Speed 13 mph    
T = Trace of Precipitation, MM = Missing Value Source: NWS Daily Summary

Daily Weather History Graph

Daily Weather History Graph

Search for Another Location

Airport or City:

Trip Planner

Search our weather history database for the weather conditions in past years. The results will help you decide how hot, cold, wet, or windy it might be!

Date:

Astronomy

Oct. 12, 2013 Rise Set
Actual Time 7:22 AM MDT 6:25 PM MDT
Civil Twilight 6:51 AM MDT 6:55 PM MDT
Nautical Twilight 6:16 AM MDT 7:31 PM MDT
Astronomical Twilight 5:40 AM MDT 8:06 PM MDT
Moon 2:59 PM MDT (10/12) 12:03 AM MDT (10/12)
Length of Visible Light 12h 04m
Length of Day
11h 02m
First Quarter, 59% of the Moon is Illuminated
Oct 12
First Quarter
Oct 18
Full
Oct 26
Last Quarter
Nov 3
New
Nov 9
First Quarter

Hourly Weather History & Observations

Time (MDT) Temp. Windchill Dew Point Humidity Pressure Visibility Wind Dir Wind Speed Gust Speed Precip Events Conditions
12:48 AM 30.0 °F 22.4 °F 28.0 °F 92% 30.05 in - West 8.1 mph - N/A   Unknown
1:48 AM 30.0 °F 22.4 °F 28.0 °F 92% 30.07 in - WNW 8.1 mph - N/A   Unknown
2:48 AM 28.0 °F 20.8 °F 26.1 °F 92% 30.09 in - West 6.9 mph - N/A   Unknown
3:48 AM 30.0 °F 22.4 °F 28.0 °F 92% 30.10 in - West 8.1 mph - N/A   Unknown
4:48 AM 30.0 °F 22.4 °F 28.0 °F 92% 30.11 in - West 8.1 mph - N/A   Unknown
5:48 AM 30.9 °F 25.2 °F 28.9 °F 92% 30.13 in - WNW 5.8 mph - N/A   Unknown
6:48 AM 32.0 °F - 30.0 °F 92% 30.15 in - Calm Calm - N/A   Unknown
7:48 AM 34.0 °F 31.0 °F 30.9 °F 89% 30.16 in - West 3.5 mph - N/A   Unknown
8:48 AM 36.0 °F - 33.1 °F 89% 30.17 in - Calm Calm - N/A   Unknown
10:48 AM 48.9 °F - 28.0 °F 44% 30.17 in - WNW 5.8 mph - N/A   Unknown
11:48 AM 52.0 °F - 27.0 °F 38% 30.17 in - NNW 6.9 mph - N/A   Unknown
12:48 PM 54.0 °F - 24.1 °F 31% 30.16 in - Variable 4.6 mph - N/A   Unknown
1:48 PM 54.0 °F - 25.0 °F 33% 30.15 in - NNE 6.9 mph - N/A   Unknown
2:48 PM 54.0 °F - 24.1 °F 31% 30.15 in - North 6.9 mph - N/A   Unknown
3:48 PM 53.1 °F - 24.1 °F 32% 30.15 in - Variable 4.6 mph - N/A   Unknown
4:48 PM 53.1 °F - 24.1 °F 32% 30.16 in - East 4.6 mph - N/A   Unknown
5:48 PM 51.1 °F - 24.1 °F 35% 30.17 in - East 3.5 mph - N/A   Unknown
6:48 PM 43.0 °F 38.2 °F 24.1 °F 47% 30.20 in - ENE 8.1 mph - N/A   Unknown
7:48 PM 39.9 °F 37.8 °F 23.0 °F 51% 30.22 in - East 3.5 mph - N/A   Unknown
8:48 PM 37.9 °F - 23.0 °F 55% 30.23 in - Calm Calm - N/A   Unknown
9:48 PM 30.0 °F - 21.9 °F 72% 30.25 in - Calm Calm - N/A   Unknown
10:48 PM 32.0 °F - 24.1 °F 73% 30.26 in - Calm Calm - N/A   Unknown
11:48 PM 33.1 °F - 26.1 °F 75% 30.25 in - Calm Calm - N/A   Unknown